RUK5DM EGSS-EGPH

Flight info

Callsign RUK5DM
Flight time 0h 57m
Altitude 32000
Route UTAVA Q75 BUZAD T420 TNT UN57 POL UN601 RIBEL DCT INPIP
Aircraft B738/M-SDE2E3FGHIRWXY/LB1

Departure

Time 2026-04-21 14:44
Airport London Stansted Airport (EGSS)

Arrival

Time 2026-04-21 15:41
Airport Edinburgh Airport (EGPH)
Time Latitude Longitude Altitude Speed Heading
2026-04-21 14:22 51.89009 0.25384 348 ft 0 kts 223°
2026-04-21 14:29 51.89010 0.25384 348 ft 0 kts 223°
2026-04-21 14:34 51.89011 0.25387 348 ft 2 kts 223°
2026-04-21 14:34 51.89024 0.25408 378 ft 3 kts 233°
2026-04-21 14:34 51.89034 0.25435 347 ft 3 kts 250°
2026-04-21 14:34 51.89038 0.25465 358 ft 3 kts 281°
2026-04-21 14:35 51.89033 0.25485 358 ft 1 kts 314°
2026-04-21 14:35 51.89032 0.25487 358 ft 0 kts 314°
2026-04-21 14:37 51.89033 0.25485 358 ft 2 kts 314°
2026-04-21 14:37 51.89084 0.25402 348 ft 15 kts 314°
2026-04-21 14:37 51.89161 0.25275 352 ft 18 kts 328°
2026-04-21 14:38 51.89239 0.25126 350 ft 18 kts 264°
2026-04-21 14:38 51.89165 0.24964 350 ft 18 kts 220°
2026-04-21 14:38 51.89077 0.24830 348 ft 17 kts 225°
2026-04-21 14:38 51.88991 0.24702 348 ft 17 kts 225°
2026-04-21 14:39 51.88893 0.24553 352 ft 24 kts 223°
2026-04-21 14:39 51.88753 0.24344 348 ft 29 kts 223°
2026-04-21 14:39 51.88612 0.24132 348 ft 27 kts 223°
2026-04-21 14:39 51.88480 0.23935 351 ft 25 kts 223°
2026-04-21 14:40 51.88356 0.23749 348 ft 23 kts 223°
2026-04-21 14:40 51.88240 0.23574 352 ft 22 kts 223°
2026-04-21 14:40 51.88126 0.23405 354 ft 22 kts 223°
2026-04-21 14:40 51.88016 0.23241 348 ft 21 kts 223°
2026-04-21 14:41 51.87909 0.23081 348 ft 21 kts 223°
2026-04-21 14:41 51.87807 0.22925 353 ft 20 kts 223°
2026-04-21 14:41 51.87706 0.22774 348 ft 19 kts 223°
2026-04-21 14:41 51.87609 0.22628 348 ft 19 kts 223°
2026-04-21 14:42 51.87518 0.22478 349 ft 19 kts 246°
2026-04-21 14:42 51.87574 0.22333 335 ft 10 kts 314°
2026-04-21 14:42 51.87627 0.22269 334 ft 9 kts 338°
2026-04-21 14:42 51.87692 0.22274 334 ft 10 kts 26°
2026-04-21 14:43 51.87711 0.22297 335 ft 0 kts 40°
2026-04-21 14:43 51.87785 0.22406 339 ft 47 kts 43°
2026-04-21 14:43 51.88222 0.23062 336 ft 123 kts 43°
2026-04-21 14:43 51.88993 0.24204 678 ft 157 kts 46°
2026-04-21 14:44 51.89789 0.25417 1732 ft 158 kts 47°
2026-04-21 14:44 51.90612 0.26706 2489 ft 177 kts 47°
2026-04-21 14:44 51.91571 0.28199 2816 ft 206 kts 45°
2026-04-21 14:44 51.92822 0.29569 3072 ft 236 kts 22°
2026-04-21 14:45 51.94527 0.29806 3757 ft 256 kts 353°
2026-04-21 14:45 51.96124 0.28541 4745 ft 269 kts 320°
2026-04-21 14:45 51.97109 0.25885 5703 ft 281 kts 287°
2026-04-21 14:45 51.97485 0.22773 6541 ft 290 kts 278°
2026-04-21 14:46 51.97747 0.19500 7546 ft 290 kts 278°
2026-04-21 14:46 51.97999 0.16244 8314 ft 299 kts 278°
2026-04-21 14:46 51.98288 0.12926 9321 ft 298 kts 279°
2026-04-21 14:46 51.98625 0.09545 10098 ft 307 kts 280°
2026-04-21 14:47 51.98953 0.06123 10954 ft 309 kts 274°
2026-04-21 14:47 51.98805 0.02616 11672 ft 318 kts 262°
2026-04-21 14:47 51.98483 -0.01069 11911 ft 343 kts 261°
2026-04-21 14:47 51.98156 -0.05028 12215 ft 364 kts 262°
2026-04-21 14:48 51.97857 -0.08918 12790 ft 374 kts 263°
2026-04-21 14:48 51.97539 -0.13121 13627 ft 376 kts 263°
2026-04-21 14:48 51.97214 -0.17411 14389 ft 381 kts 262°
2026-04-21 14:48 51.96889 -0.21626 15171 ft 382 kts 263°
2026-04-21 14:49 51.96567 -0.25769 15801 ft 388 kts 263°
2026-04-21 14:49 51.96228 -0.30108 16613 ft 389 kts 263°
2026-04-21 14:49 51.95884 -0.34473 17396 ft 391 kts 263°
2026-04-21 14:49 51.95538 -0.38851 18102 ft 395 kts 263°
2026-04-21 14:50 51.95300 -0.41846 18548 ft 398 kts 263°
2026-04-21 14:50 51.94851 -0.47698 19668 ft 392 kts 268°
2026-04-21 14:50 51.95117 -0.52045 20345 ft 388 kts 289°
2026-04-21 14:50 51.96284 -0.55914 21168 ft 380 kts 307°
2026-04-21 14:51 51.98067 -0.59042 21842 ft 379 kts 323°
2026-04-21 14:51 52.00278 -0.61391 22490 ft 380 kts 329°
2026-04-21 14:51 52.02564 -0.63566 23066 ft 383 kts 329°
2026-04-21 14:51 52.04883 -0.65741 23631 ft 386 kts 329°
2026-04-21 14:52 52.07194 -0.67945 24212 ft 386 kts 328°
2026-04-21 14:52 52.09504 -0.70191 24735 ft 386 kts 328°
2026-04-21 14:52 52.11803 -0.72449 25251 ft 387 kts 328°
2026-04-21 14:52 52.14109 -0.74725 25738 ft 388 kts 327°
2026-04-21 14:53 52.16413 -0.77000 26285 ft 387 kts 327°
2026-04-21 14:53 52.18695 -0.79256 27024 ft 380 kts 327°
2026-04-21 14:53 52.20936 -0.81470 27835 ft 373 kts 326°
2026-04-21 14:53 52.23128 -0.83640 28581 ft 367 kts 326°
2026-04-21 14:54 52.25304 -0.85797 29272 ft 363 kts 326°
2026-04-21 14:54 52.27453 -0.87929 29958 ft 359 kts 326°
2026-04-21 14:54 52.29573 -0.90035 30633 ft 354 kts 325°
2026-04-21 14:54 52.31678 -0.92130 31058 ft 355 kts 325°
2026-04-21 14:55 52.33800 -0.94245 31307 ft 359 kts 325°
2026-04-21 14:55 52.35937 -0.96378 31639 ft 361 kts 325°
2026-04-21 14:55 52.38084 -0.98522 32029 ft 361 kts 325°
2026-04-21 14:55 52.40234 -1.00671 32348 ft 363 kts 325°
2026-04-21 14:56 52.42408 -1.02847 32341 ft 369 kts 325°
2026-04-21 14:56 52.46764 -1.07210 32301 ft 363 kts 325°
2026-04-21 14:57 52.51048 -1.11512 32298 ft 361 kts 325°
2026-04-21 14:57 52.55341 -1.15837 32269 ft 363 kts 325°
2026-04-21 14:58 52.59658 -1.20192 32247 ft 365 kts 325°
2026-04-21 14:58 52.63956 -1.24536 32240 ft 366 kts 325°
2026-04-21 14:59 52.68294 -1.28931 32235 ft 366 kts 325°
2026-04-21 14:59 52.72630 -1.33336 32243 ft 366 kts 325°
2026-04-21 14:59 52.74797 -1.35543 32370 ft 366 kts 325°
2026-04-21 15:00 52.76966 -1.37755 32375 ft 366 kts 325°
2026-04-21 15:00 52.81296 -1.42179 32374 ft 366 kts 325°
2026-04-21 15:01 52.85625 -1.46612 32376 ft 366 kts 325°
2026-04-21 15:01 52.89948 -1.51050 32372 ft 366 kts 325°
2026-04-21 15:02 52.94280 -1.55508 32378 ft 366 kts 325°
2026-04-21 15:02 52.97905 -1.59247 32383 ft 367 kts 325°
2026-04-21 15:03 53.02248 -1.63735 32376 ft 368 kts 325°
2026-04-21 15:03 53.06700 -1.67892 32381 ft 373 kts 334°
2026-04-21 15:04 53.11614 -1.70937 32386 ft 375 kts 336°
2026-04-21 15:04 53.16489 -1.73900 32389 ft 376 kts 336°
2026-04-21 15:05 53.21402 -1.76924 32382 ft 377 kts 336°
2026-04-21 15:05 53.28778 -1.81514 32391 ft 378 kts 336°
2026-04-21 15:06 53.33716 -1.84602 32387 ft 379 kts 336°
2026-04-21 15:06 53.38662 -1.87703 32385 ft 380 kts 336°
2026-04-21 15:07 53.43630 -1.90825 32384 ft 382 kts 336°
2026-04-21 15:07 53.48610 -1.93963 32387 ft 383 kts 336°
2026-04-21 15:08 53.53606 -1.97119 32393 ft 384 kts 336°
2026-04-21 15:08 53.58612 -2.00289 32391 ft 385 kts 336°
2026-04-21 15:09 53.63623 -2.03470 32400 ft 385 kts 336°
2026-04-21 15:09 53.68641 -2.06665 32414 ft 386 kts 336°
2026-04-21 15:10 53.73673 -2.09876 32409 ft 387 kts 336°
2026-04-21 15:10 53.78673 -2.13217 32410 ft 386 kts 335°
2026-04-21 15:11 53.83618 -2.16620 32404 ft 387 kts 335°
2026-04-21 15:11 53.88619 -2.20042 32403 ft 387 kts 335°
2026-04-21 15:12 53.93616 -2.23466 32405 ft 387 kts 335°
2026-04-21 15:12 53.98613 -2.26898 32400 ft 387 kts 335°
2026-04-21 15:13 54.03609 -2.30339 32403 ft 387 kts 335°
2026-04-21 15:13 54.08602 -2.33787 32409 ft 387 kts 335°
2026-04-21 15:14 54.13596 -2.37245 32409 ft 388 kts 335°
2026-04-21 15:14 54.18606 -2.40723 32421 ft 390 kts 335°
2026-04-21 15:15 54.23627 -2.44218 32418 ft 389 kts 335°
2026-04-21 15:15 54.28630 -2.47710 32428 ft 389 kts 335°
2026-04-21 15:16 54.33673 -2.51239 32431 ft 393 kts 335°
2026-04-21 15:16 54.38753 -2.54806 32428 ft 395 kts 335°
2026-04-21 15:17 54.43829 -2.58375 32434 ft 396 kts 335°
2026-04-21 15:17 54.48939 -2.61981 32434 ft 399 kts 335°
2026-04-21 15:18 54.54083 -2.65618 32435 ft 398 kts 335°
2026-04-21 15:18 54.59216 -2.69259 31962 ft 399 kts 335°
2026-04-21 15:19 54.61775 -2.71078 31436 ft 398 kts 335°
2026-04-21 15:19 54.64334 -2.72899 30928 ft 397 kts 335°
2026-04-21 15:19 54.66896 -2.74723 30333 ft 398 kts 335°
2026-04-21 15:19 54.69458 -2.76552 29649 ft 399 kts 335°
2026-04-21 15:20 54.72025 -2.78388 29141 ft 396 kts 336°
2026-04-21 15:20 54.74561 -2.80202 28661 ft 394 kts 336°
2026-04-21 15:20 54.77076 -2.82005 28245 ft 390 kts 336°
2026-04-21 15:20 54.79576 -2.83800 27793 ft 387 kts 337°
2026-04-21 15:21 54.82023 -2.85557 27361 ft 384 kts 337°
2026-04-21 15:21 54.84484 -2.87328 26936 ft 382 kts 338°
2026-04-21 15:21 54.86929 -2.89089 26512 ft 380 kts 338°
2026-04-21 15:21 54.89367 -2.90847 26018 ft 381 kts 338°
2026-04-21 15:22 54.91817 -2.92617 25498 ft 383 kts 338°
2026-04-21 15:22 54.94284 -2.94402 24976 ft 384 kts 339°
2026-04-21 15:22 54.96761 -2.96195 24446 ft 387 kts 339°
2026-04-21 15:22 54.99249 -2.97999 23912 ft 389 kts 339°
2026-04-21 15:23 55.01760 -2.99822 23269 ft 390 kts 339°
2026-04-21 15:23 55.04269 -3.01647 22732 ft 390 kts 339°
2026-04-21 15:23 55.06764 -3.03465 22264 ft 386 kts 339°
2026-04-21 15:23 55.09239 -3.05271 21644 ft 388 kts 340°
2026-04-21 15:24 55.11726 -3.07085 21113 ft 386 kts 340°
2026-04-21 15:24 55.14200 -3.08892 20573 ft 386 kts 340°
2026-04-21 15:24 55.16675 -3.10704 20057 ft 384 kts 340°
2026-04-21 15:24 55.19136 -3.12510 19569 ft 383 kts 340°
2026-04-21 15:25 55.21580 -3.14306 19209 ft 377 kts 340°
2026-04-21 15:25 55.23949 -3.16051 18992 ft 361 kts 340°
2026-04-21 15:25 55.26282 -3.17766 18085 ft 364 kts 340°
2026-04-21 15:25 55.28574 -3.19456 17842 ft 348 kts 340°
2026-04-21 15:26 55.30722 -3.21045 17694 ft 331 kts 340°
2026-04-21 15:26 55.32843 -3.22611 17070 ft 329 kts 341°
2026-04-21 15:26 55.34960 -3.24174 16335 ft 332 kts 341°
2026-04-21 15:26 55.37066 -3.25731 15915 ft 326 kts 341°
2026-04-21 15:27 55.39145 -3.27272 15484 ft 321 kts 341°
2026-04-21 15:27 55.41188 -3.28789 15051 ft 316 kts 341°
2026-04-21 15:27 55.43197 -3.30281 14630 ft 311 kts 341°
2026-04-21 15:27 55.45180 -3.31755 14212 ft 307 kts 341°
2026-04-21 15:28 55.47130 -3.33208 13758 ft 303 kts 341°
2026-04-21 15:28 55.49056 -3.34642 13362 ft 298 kts 341°
2026-04-21 15:28 55.50866 -3.36390 12969 ft 297 kts 326°
2026-04-21 15:28 55.52461 -3.38708 12597 ft 299 kts 321°
2026-04-21 15:29 55.54019 -3.41171 12192 ft 302 kts 320°
2026-04-21 15:29 55.55579 -3.43641 11810 ft 300 kts 321°
2026-04-21 15:29 55.57138 -3.46070 11417 ft 299 kts 321°
2026-04-21 15:29 55.58676 -3.48427 11427 ft 286 kts 322°
2026-04-21 15:30 55.60155 -3.50672 11385 ft 277 kts 322°
2026-04-21 15:30 55.61620 -3.52884 11160 ft 276 kts 322°
2026-04-21 15:30 55.63078 -3.55087 10947 ft 274 kts 322°
2026-04-21 15:30 55.64522 -3.57245 10741 ft 271 kts 323°
2026-04-21 15:31 55.65983 -3.59352 10532 ft 269 kts 324°
2026-04-21 15:31 55.67285 -3.61686 10280 ft 268 kts 306°
2026-04-21 15:31 55.68368 -3.64350 10083 ft 265 kts 309°
2026-04-21 15:31 55.69480 -3.66965 9765 ft 266 kts 309°
2026-04-21 15:32 55.70603 -3.69589 9454 ft 268 kts 309°
2026-04-21 15:32 55.71735 -3.72226 9139 ft 269 kts 309°
2026-04-21 15:32 55.72841 -3.74917 8827 ft 269 kts 303°
2026-04-21 15:32 55.73759 -3.77777 8503 ft 265 kts 300°
2026-04-21 15:33 55.74635 -3.80658 8070 ft 267 kts 299°
2026-04-21 15:33 55.75520 -3.83589 7519 ft 272 kts 301°
2026-04-21 15:33 55.76762 -3.86072 6927 ft 271 kts 334°
2026-04-21 15:33 55.78513 -3.86838 6468 ft 256 kts 11°
2026-04-21 15:34 55.80071 -3.85690 6137 ft 236 kts 47°
2026-04-21 15:34 55.80839 -3.83283 5855 ft 221 kts 78°
2026-04-21 15:34 55.81230 -3.80676 5571 ft 214 kts 74°
2026-04-21 15:34 55.81711 -3.78251 5301 ft 204 kts 71°
2026-04-21 15:35 55.82250 -3.75975 5003 ft 195 kts 70°
2026-04-21 15:35 55.82801 -3.73832 4756 ft 186 kts 66°
2026-04-21 15:35 55.83394 -3.71847 4508 ft 177 kts 64°
2026-04-21 15:35 55.83990 -3.69997 4263 ft 168 kts 63°
2026-04-21 15:36 55.84566 -3.68254 4034 ft 160 kts 63°
2026-04-21 15:36 55.85117 -3.66598 3834 ft 151 kts 64°
2026-04-21 15:36 55.85643 -3.65026 3623 ft 146 kts 62°
2026-04-21 15:36 55.86163 -3.63491 3453 ft 145 kts 62°
2026-04-21 15:37 55.86680 -3.61937 3254 ft 145 kts 62°
2026-04-21 15:37 55.87204 -3.60371 3023 ft 148 kts 62°
2026-04-21 15:37 55.87736 -3.58830 2847 ft 146 kts 62°
2026-04-21 15:37 55.88258 -3.57254 2584 ft 147 kts 62°
2026-04-21 15:38 55.88763 -3.55745 2403 ft 137 kts 62°
2026-04-21 15:38 55.89246 -3.54310 2269 ft 136 kts 62°
2026-04-21 15:38 55.89726 -3.52880 2054 ft 130 kts 63°
2026-04-21 15:38 55.90173 -3.51547 1875 ft 128 kts 61°
2026-04-21 15:39 55.90634 -3.50178 1701 ft 126 kts 60°
2026-04-21 15:39 55.91077 -3.48868 1524 ft 124 kts 61°
2026-04-21 15:39 55.91524 -3.47544 1357 ft 125 kts 62°
2026-04-21 15:39 55.91962 -3.46235 1168 ft 124 kts 62°
2026-04-21 15:40 55.92409 -3.44911 986 ft 124 kts 59°
2026-04-21 15:40 55.92850 -3.43602 816 ft 122 kts 59°
2026-04-21 15:40 55.93289 -3.42302 648 ft 123 kts 59°
2026-04-21 15:40 55.93727 -3.41014 433 ft 121 kts 59°
2026-04-21 15:41 55.94155 -3.39752 291 ft 117 kts 59°
2026-04-21 15:41 55.94574 -3.38512 153 ft 116 kts 58°
2026-04-21 15:41 55.94961 -3.37370 111 ft 91 kts 59°
2026-04-21 15:41 55.95211 -3.36628 110 ft 49 kts 59°
2026-04-21 15:42 55.95344 -3.36231 109 ft 36 kts 58°
2026-04-21 15:42 55.95465 -3.35877 111 ft 29 kts 59°
2026-04-21 15:42 55.95527 -3.35695 112 ft 14 kts 57°
2026-04-21 15:42 55.95565 -3.35562 112 ft 6 kts 81°
2026-04-21 15:43 55.95500 -3.35441 113 ft 16 kts 150°
2026-04-21 15:43 55.95417 -3.35443 113 ft 13 kts 233°
2026-04-21 15:43 55.95372 -3.35581 115 ft 13 kts 239°
2026-04-21 15:43 55.95326 -3.35714 114 ft 12 kts 238°
2026-04-21 15:44 55.95281 -3.35843 115 ft 12 kts 239°
2026-04-21 15:44 55.95263 -3.35897 115 ft 0 kts 238°
2026-04-21 15:45 55.95243 -3.35956 115 ft 12 kts 239°
2026-04-21 15:45 55.95196 -3.36097 115 ft 13 kts 239°
2026-04-21 15:45 55.95149 -3.36236 114 ft 13 kts 239°
2026-04-21 15:46 55.95104 -3.36369 114 ft 12 kts 236°
2026-04-21 15:46 55.95043 -3.36380 115 ft 8 kts 148°
2026-04-21 15:46 55.95015 -3.36306 114 ft 7 kts 118°
2026-04-21 15:46 55.95007 -3.36277 114 ft 1 kts 116°
2026-04-21 15:47 55.95002 -3.36257 114 ft 2 kts 116°
2026-04-21 15:47 55.94997 -3.36239 113 ft 0 kts 116°
2026-04-21 15:47 55.94995 -3.36233 113 ft 0 kts 116°